(32) Pomona
ephemeris date magn radius delta ra dec elong phase
Today11 May 202513.32.791 AU3.763 AU02h17m+14°20'13.4°4.8°
Opposition7 Dec 202511.32.687 AU1.705 AU05h02m+17°40'174.9°1.9°
(32) Pomona - 2025-05-11
astro.vanbuitenen.nl


 
-1 year
-1 month
-1 day
Now
+1 day
+1 month
+1 year

The interactive orbit chart above shows the body's path through the solar system and its position at the given date. Green and blue lines are shown perpendicular to the ecliptic plane: Green if the path is above the ecliptic plane, blue if it is below. (Left-click and drag to rotate the view; Right-click and drag to move the view; Use scroll wheel to zoom in our out.)

The orbital elements of Pomona are:

            e (Eccentricity)                : 0.0816193
            a (Semimajor axis)              : 2.5867896
            i (Inclination)                 : 5.52229
            Ω (Longitude of ascending node) : 220.36086
            ω (Argument of perihelion)      : 338.06854
            M (Mean anomaly)                : 194.41809
            Epoch                           : 2025 May 05

            L (Longitude of perihelion)     : 198.52159
            B (Latitude of perihelion)      : -2.05981
            P (Orbital period in years)     : 4.16            
        

The light curve chart below shows the estimated development of the minor planet's magnitude.


The all-sky chart below shows the path of the minor planet over the same period as the light curve. The current position is marked yellow.





The following chart shows the path of the minor planet in the next few days. The field of view is optimized for (~10x50) binoculars and finderscopes. A more printer-friendly version of the same chart can be found below.




Ephemerides:
Date       Time       RA (2000)    DEC (2000)    delta   radius  elong  phase   PA    magn
2025-05-11 00:00 UT   02 17 02.1   +14 20 55     3.763    2.791   13.4    4.8   253   13.3 
2025-05-11 15:59 UT   02 18 05.5   +14 25 40     3.761    2.791   13.8    5.0   253   13.3 
2025-05-12 00:00 UT   02 18 37.3   +14 28 03     3.760    2.791   14.0    5.0   253   13.3 
2025-05-13 00:00 UT   02 20 12.6   +14 35 08     3.757    2.791   14.6    5.2   253   13.3 
2025-05-14 00:00 UT   02 21 48.0   +14 42 10     3.754    2.790   15.1    5.4   253   13.3 
2025-05-15 00:00 UT   02 23 23.3   +14 49 09     3.750    2.790   15.7    5.6   253   13.3 
2025-05-16 00:00 UT   02 24 58.7   +14 56 06     3.746    2.790   16.2    5.8   253   13.3 
2025-05-17 00:00 UT   02 26 34.1   +15 02 60     3.742    2.790   16.8    6.0   253   13.3 
2025-05-18 00:00 UT   02 28 09.5   +15 09 51     3.738    2.790   17.4    6.2   253   13.3 
2025-05-19 00:00 UT   02 29 44.9   +15 16 39     3.734    2.789   17.9    6.4   253   13.3 
2025-05-20 00:00 UT   02 31 20.3   +15 23 24     3.730    2.789   18.5    6.6   253   13.4 
2025-05-21 00:00 UT   02 32 55.7   +15 30 06     3.726    2.789   19.1    6.8   253   13.4 
2025-05-22 00:00 UT   02 34 31.2   +15 36 45     3.721    2.789   19.6    7.0   253   13.4 
2025-05-23 00:00 UT   02 36 06.6   +15 43 21     3.717    2.788   20.2    7.2   253   13.4 
2025-05-24 00:00 UT   02 37 42.1   +15 49 54     3.712    2.788   20.7    7.4   253   13.4 
2025-05-25 00:00 UT   02 39 17.5   +15 56 24     3.707    2.788   21.3    7.6   253   13.4 
2025-05-26 00:00 UT   02 40 52.9   +16 02 50     3.702    2.788   21.9    7.8   253   13.4 
2025-05-27 00:00 UT   02 42 28.3   +16 09 14     3.697    2.787   22.4    8.0   253   13.4 
2025-05-28 00:00 UT   02 44 03.7   +16 15 34     3.692    2.787   23.0    8.2   253   13.4 
2025-05-29 00:00 UT   02 45 39.1   +16 21 50     3.686    2.787   23.6    8.4   253   13.4 
2025-05-30 00:00 UT   02 47 14.4   +16 28 04     3.681    2.787   24.1    8.6   254   13.4 
2025-05-31 00:00 UT   02 48 49.7   +16 34 14     3.675    2.786   24.7    8.7   254   13.4 
2025-06-01 00:00 UT   02 50 25.0   +16 40 20     3.669    2.786   25.3    8.9   254   13.4 


    Terminology:
            
    delta:  distance between minor planet and earth in AU
    radius: distance between minor planet and sun in AU
    magn:   magnitude (brightness) estimate    
    ra:     right ascension in hours (24h = 360deg)
    dec:    declination in degrees
    elong:  elongation in degrees (angle sun-earth-minor planet)    
    phase:  phase angle in degrees (angle sun-minor planet-earth)        
    AU:     Astronomical Unit (mean distance between earth and sun: 149597870.7 km
    

Orbital elements provided by the MPC (Minor Planet Center).
Calculations by a modified version of AAPlus, a C# implementation of the AA+ project by PJ Naughter from the algorithms presented in the book "Astronomical Algorithms" by Jean Meeus.
NGC2000 dso catalog and star labels from VizieR as provided by the Strasbourg astronomical Data Center.
Tycho2 catalog from the ESO archive.